Wiscasset, ME

1:18 AM EDT on July 25, 2017 (GMT -0400)
Wiscasset

Weather History for KIWI - January, 2013

Change the Weather History Date:

Monday, January 21, 2013

  Actual Average Record
Temperature  
Mean Temperature 19 °F -  
Max Temperature 24 °F 25 °F 53 °F (2006)
Min Temperature 14 °F 7 °F -8 °F (2005)
Degree Days  
Heating Degree Days 46    
Moisture  
Dew Point 2 °F    
Average Humidity 47    
Maximum Humidity 74    
Minimum Humidity 25    
Precipitation  
Precipitation 0.00 in - - ()
Sea Level Pressure  
Sea Level Pressure 29.97 in    
Wind  
Wind Speed 4 mph (NW)    
Max Wind Speed 10 mph    
Max Gust Speed 17 mph    
Visibility 9 miles    
Events Snow    
Averages and records for this station are not official NWS values.
T = Trace of Precipitation, MM = Missing Value Source: NWS Daily Summary

Daily Weather History Graph

Daily Weather History Graph

Search for Another Location

Airport or City:

Trip Planner

Search our weather history database for the weather conditions in past years. The results will help you decide how hot, cold, wet, or windy it might be!

Date:

Astronomy

Jan. 21, 2013 Rise Set
Actual Time 7:06 AM EST 4:34 PM EST
Civil Twilight 6:34 AM EST 5:06 PM EST
Nautical Twilight 5:59 AM EST 5:41 PM EST
Astronomical Twilight 5:25 AM EST 6:15 PM EST
Moon 12:11 PM EST (1/21) 2:31 AM EST (1/21)
Length of Visible Light 10h 31m
Length of Day
9h 28m
Waxing Gibbous, 75% of the Moon is Illuminated
Jan 21
Waxing Gibbous
Jan 26
Full
Feb 3
Last Quarter
Feb 10
New
Feb 17
First Quarter

Hourly Weather History & Observations

Time (EST) Temp. Windchill Dew Point Humidity Pressure Visibility Wind Dir Wind Speed Gust Speed Precip Events Conditions
12:53 AM 24.1 °F 16.0 °F 6.1 °F 46% 29.86 in 10.0 mi Variable 6.9 mph - N/A   Overcast
1:53 AM 19.9 °F 13.4 °F 3.0 °F 48% 29.90 in 10.0 mi Variable 4.6 mph 17.3 mph N/A   Clear
2:53 AM 19.0 °F 13.9 °F 1.9 °F 47% 29.93 in 10.0 mi NNW 3.5 mph - N/A   Clear
3:53 AM 18.0 °F 8.7 °F 1.0 °F 48% 29.94 in 10.0 mi Variable 6.9 mph - N/A   Clear
4:53 AM 16.0 °F 10.4 °F 1.0 °F 52% 29.97 in 10.0 mi Variable 3.5 mph - N/A   Clear
5:53 AM 15.1 °F 9.4 °F -0.0 °F 51% 30.00 in 10.0 mi Variable 3.5 mph - N/A   Clear
6:53 AM 14.0 °F - -2.0 °F 49% 30.01 in 10.0 mi Calm Calm - N/A   Clear
7:53 AM 14.0 °F 8.2 °F -2.0 °F 49% 30.03 in 10.0 mi Variable 3.5 mph - N/A   Clear
8:53 AM 17.1 °F 8.7 °F -4.0 °F 39% 30.05 in 10.0 mi Variable 5.8 mph - N/A   Clear
9:53 AM 19.0 °F 10.0 °F -4.0 °F 36% 30.06 in 10.0 mi Variable 6.9 mph - N/A   Clear
10:53 AM 21.0 °F 9.9 °F -5.1 °F 32% 30.03 in 10.0 mi NW 10.4 mph - N/A   Clear
11:53 AM 21.9 °F 15.7 °F -7.1 °F 28% 30.01 in 10.0 mi Variable 4.6 mph - N/A   Clear
12:53 PM 23.0 °F - -6.0 °F 28% 29.98 in 10.0 mi Calm Calm - N/A   Clear
1:53 PM 24.1 °F - -7.1 °F 25% 29.98 in 10.0 mi Calm Calm - N/A   Clear
2:53 PM 24.1 °F - -7.1 °F 25% 29.98 in 10.0 mi Calm Calm - N/A   Mostly Cloudy
3:53 PM 24.1 °F - -5.1 °F 28% 29.97 in 10.0 mi Calm Calm - N/A   Mostly Cloudy
4:53 PM 23.0 °F - -2.0 °F 34% 29.96 in 10.0 mi Calm Calm - N/A   Overcast
5:53 PM 23.0 °F - 1.9 °F 40% 29.94 in 9.0 mi Calm Calm - N/A   Overcast
6:53 PM 24.1 °F 19.7 °F 3.0 °F 40% 29.96 in 10.0 mi WSW 3.5 mph - N/A   Overcast
7:53 PM 23.0 °F 15.8 °F 10.9 °F 60% 29.96 in 7.0 mi Variable 5.8 mph - 0.00 in Snow Light Snow
8:40 PM 21.2 °F - 14.0 °F 74% 29.96 in 2.5 mi Calm Calm - 0.00 in Snow Light Snow
8:49 PM 21.2 °F - 14.0 °F 74% 29.96 in 3.0 mi Calm Calm - 0.00 in Snow Light Snow
8:53 PM 21.0 °F - 14.0 °F 74% 29.96 in 3.0 mi Calm Calm - 0.00 in Snow Light Snow
9:53 PM 21.0 °F - 14.0 °F 74% 29.94 in 10.0 mi Calm Calm - 0.00 in   Overcast
10:53 PM 19.0 °F - 9.0 °F 65% 29.89 in 10.0 mi Calm Calm - N/A   Partly Cloudy
11:53 PM 18.0 °F 9.8 °F 9.0 °F 68% 29.87 in 10.0 mi ENE 5.8 mph - N/A   Clear